Location: Unspecified
(0.0000°N, 0.0000°E)
Time: 18:02:58
(UTC+00:00)

STARLINK 1067 - Pass Details

Date: 23 January 2020
Orbit: 548 x 551 km, 53.0° (Epoch: 17 January)

Event Time Altitude Azimuth Distance (km) Brightness Sun altitude
Exits shadow 03:37:54 13° 99° (E) 1,630 6.7 -35.8°
Drops below altitude 10° 03:38:49 10° 88° (E) 1,812 6.9 -35.6°
Sets 03:41:47 0° 65° (ENE) 2,702 7.6 -35.0°
